STARLINK-1262, 45366

Orbit data source: Space-Track

STARLINK-1262, 45366 is a payload satellite owned by SpaceX/Seattle (US) in LEO that was launched on Wed, 18 Mar 2020 UTC via an FALCON 9 launch vehicle from the Air Force Eastern Test Range (AFETR). Payloads include a variety of satellites, spacecraft, and rockets equipped with specific instruments for various scientific and technological missions. These include communications satellites like Starlink; space stations such as the ISS; scientific satellites like the Hubble; Earth observation satellites from companies like Planet Labs, Umbra, and HawkEye 360; GPS; miniature CubeSats for education and research; and military/defense satellites.

Loading next visibility...
STARLINK-1262 details
Identifier
45366, 2020-019G
Orbit
LEO
Last TLE update23 hours ago
Origin
Flag of USSpaceX/Seattle (US)
ManufacturerSpaceX/Seattle
MissionOperational Commercial Communications
Bus & MotorSTARLINK, Unknown motor
Mass260 kg wet, ~248 kg dry
Launch date (UTC)
2020-03-18 (5 years ago)
Launch vehicle
FALCON 9
Launch site
Air Force Eastern Test Range (AFETR)
Object type
Payload
Rocket body
Debris
Shape & HBRBox + 1 Pan, 8.86 m
Radar Cross Section13.562 m², Large (>1 m²)

Expand to show TLE details & history

TLE from 23 hours ago
0 STARLINK-1262
1 45366U 20019G   24347.40520686  .00020503  00000-0  13917-2 0  9990
2 45366  53.0546  37.0027 0001518  76.7249 283.3909 15.06390980261563
Epoch: 2024-12-12T09:43Z
Definitive object data (Epoch: 2024-12-12T09:43:29.872Z)
Latitude-0.00005°
Longitude169.54218°
Altitude547.875 km
Speed7.589 km/s
True Right ascension02h 28m 00s
True Declination0° 00' 00"
Sunlit
Object was in full shadow at TLE epoch
Visualization TLE readout
Latitude20.80766°
Longitude-31.26864°
Altitude547.351 km
Speed7.592 km/s
Apparent Right ascension15h 35m 35s
Apparent Declination-11° 28' 23"
Sunlit
Object is in daylight
Visualization observer readout
Local Sidereal Time07:11:25
Azimuth74.656° E
Elevation-34.742°
Doppler factor1
Orbital elements
Apogee altitude548.561 km
Perigee altitude546.459 km
Semi-major axis6,925.647 km
Eccentricity0.0001518
Inclination53.0546°
RAAN37.0027°
Arg. of periapsis76.7249°
True anomaly283.37398°
Mean anomaly283.3909°
Eccentric anomaly283.38244°
Mean motion3.76576 °/min
BSTAR0.0013917
Orbital period95.6 mins
Loading maneuver chart data...
Loading historical data...
Loading historical data...
Loading historical data...
Loading historical data...
Loading historical data...
Loading historical data...
Loading historical data...

STARLINK-1262 Visibility forecast

Observer location: undefined°, undefined

Span
Click to sort rows by Start time (UTC) header in descending order
Start Az.
Max El. time (UTC)
Max El. Az.
Max El.
End time (UTC)
End Az.
4 mins2024-12-13 11:40:47.035Z352.507° N2024-12-13 11:41:47.035Z14.212° NNE23.24°2024-12-13 11:44:47.035Z75.046° E
6 mins2024-12-13 13:19:47.035Z295.962° NW2024-12-13 13:21:47.035Z241.274° WSW40.613°2024-12-13 13:25:47.035Z144.63° SSE
5 mins2024-12-14 04:52:47.035Z172.063° S2024-12-14 04:54:47.035Z131.937° SE23.028°2024-12-14 04:57:47.035Z77.904° E
6 mins2024-12-14 06:31:47.035Z261.098° W2024-12-14 06:33:47.035Z306.521° NW35.051°2024-12-14 06:37:47.035Z39.254° NE
|